Location: Eexterzandvoort
(53.0303°N, 6.7884°E)
Time: 06:36:13
(UTC+00:00)

Meteor 1-14 Rocket - Pass Details

Date: 19 May 2025
Orbit: 833 x 917 km, 81.3° (Epoch: 22 June)

Event Time Altitude Azimuth Distance (km) Brightness Sun altitude
Rises 21:11:15 0° 347° (NNW) 3,407 8.9 -11.1°
Reaches altitude 10° 21:13:40 10° 349° (NNW) 2,475 7.9 -11.3°
Maximum altitude 21:19:17 78° 75° (ENE) 878 4.3 -11.8°
Enters shadow 21:23:57 16° 162° (SSE) 2,119 5.7 -12.1°
